This is the latest recevied weather packets stored in our database for station/object DG3OBU-6. If no packets are shown the sender has not sent any weather packets the latest 10 day(s).
| Time | Temp. | Humidity | Pressure | Rain* | Wind** | Luminosity | Snow |
|---|---|---|---|---|---|---|---|
| 1777807503 | 23.89° C | 44% | 1009.6 hPa | 0 mm | - | - | - |
| 1777807203 | 23.89° C | 46% | 1009.6 hPa | 0 mm | - | - | - |
| 1777806903 | 23.89° C | 44% | 1009.7 hPa | 0 mm | - | - | - |
| 1777806602 | 23.89° C | 45% | 1009.8 hPa | 0 mm | - | - | - |
| 1777806302 | 23.89° C | 44% | 1009.9 hPa | 0 mm | - | - | - |
| 1777805702 | 23.89° C | 44% | 1009.9 hPa | 0 mm | - | - | - |
| 1777805403 | 23.89° C | 46% | 1010 hPa | 0 mm | - | - | - |
| 1777805102 | 23.89° C | 44% | 1010.1 hPa | 0 mm | - | - | - |
| 1777804802 | 23.89° C | 47% | 1010.1 hPa | 0 mm | - | - | - |
| 1777804502 | 23.89° C | 48% | 1010.1 hPa | 0 mm | - | - | - |
| 1777804202 | 24.44° C | 50% | 1010.2 hPa | 0 mm | - | - | - |
| 1777803902 | 23.89° C | 50% | 1010.1 hPa | 0 mm | - | - | - |
| 1777803602 | 23.89° C | 51% | 1010.2 hPa | 0 mm | - | - | - |
| 1777803302 | 24.44° C | 48% | 1010.2 hPa | 0 mm | - | - | - |
| 1777803002 | 23.89° C | 50% | 1010.2 hPa | 0 mm | - | - | - |
| 1777802703 | 23.89° C | 51% | 1010.3 hPa | 0 mm | - | - | - |
| 1777802403 | 23.33° C | 52% | 1010.4 hPa | 0 mm | - | - | - |
| 1777802103 | 23.33° C | 50% | 1010.4 hPa | 0 mm | - | - | - |
| 1777801803 | 23.33° C | 53% | 1010.4 hPa | 0 mm | - | - | - |
| 1777801503 | 22.78° C | 52% | 1010.5 hPa | 0 mm | - | - | - |
| 1777801203 | 22.78° C | 51% | 1010.5 hPa | 0 mm | - | - | - |
| 1777800903 | 23.33° C | 54% | 1010.5 hPa | 0 mm | - | - | - |
| 1777800603 | 22.78° C | 53% | 1010.5 hPa | 0 mm | - | - | - |
| 1777800302 | 22.22° C | 53% | 1010.5 hPa | 0 mm | - | - | - |
| 1777800002 | 22.22° C | 57% | 1010.6 hPa | 0 mm | - | - | - |
* Rain latest hour (hover to see other rain measurements)
** Current wind speed in m/s (hover to see current wind gust speed)